User: anonymous   Login
Location: Sperry Observatory
(40.6664°N, 74.3236°W)
Time: 10:44:20
(UTC-04:00)
Language:

UOSAT-12 - Orbit

View from above orbital plane
View from above orbital plane
View from above satellite
View from above satellite

Ground track
Ground track

The orbit data is extracted from the following two-line orbital elements,

1 25693U 99021A   17268.95349165 -.00000024 +00000-0 +15929-4 0  9999
2 25693 064.5562 175.1128 0042296 298.4725 061.2122 14.80755687994816
Epoch (UTC): 25 September 2017 22:53:01
Eccentricity: 0.0042296
inclination: 64.5562°
perigee height: 597 km
apogee height: 656 km
right ascension of ascending node: 175.1128°
argument of perigee: 298.4725°
revolutions per day: 14.80755687
mean anomaly at epoch: 61.2122°
orbit number at epoch: 99481

The dashed part of the orbit path shows where the satellite is in the earth's shadow,  

DLR